Hill City, KS

12:35 PM CST on February 13, 2016 (GMT -0600)
Hill City Municipal

Weather History for KHLC - September, 2013

Change the Weather History Date:

Saturday, September 14, 2013

  Actual Average Record
Temperature  
Mean Temperature 69 °F 68 °F  
Max Temperature 79 °F 83 °F 98 °F (1955)
Min Temperature 59 °F 54 °F 34 °F (1945)
Cooling Degree Days 4    
Growing Degree Days 18 (Base 50)    
Moisture  
Dew Point 58 °F    
Average Humidity 72    
Maximum Humidity 87    
Minimum Humidity 58    
Precipitation  
Precipitation T in 0.05 in 0.43 in (1996)
Month to date precipitation 1.05 0.95  
Year to date precipitation 13.99 18.83  
Sea Level Pressure  
Sea Level Pressure 29.92 in    
Wind  
Wind Speed 7 mph (SSE)    
Max Wind Speed 16 mph    
Max Gust Speed 24 mph    
Visibility 10 miles    
Events Rain    
T = Trace of Precipitation, MM = Missing Value Source: NWS Daily Summary

Daily Weather History Graph

Daily Weather History Graph

Search for Another Location

Airport or City:

Trip Planner

Search our weather history database for the weather conditions in past years. The results will help you decide how hot, cold, wet, or windy it might be!

Date:

Astronomy

Sep. 14, 2013 Rise Set
Actual Time 7:19 AM CDT 7:48 PM CDT
Civil Twilight 6:52 AM CDT 8:15 PM CDT
Nautical Twilight 6:21 AM CDT 8:47 PM CDT
Astronomical Twilight 5:48 AM CDT 9:19 PM CDT
Moon 4:30 PM CDT (9/14) 1:54 AM CDT (9/14)
Length of Visible Light 13h 22m
Length of Day
12h 29m
Waxing Gibbous, 72% of the Moon is Illuminated
Sep 14
Waxing Gibbous
Sep 19
Full
Sep 26
Last Quarter
Oct 4
New
Oct 11
First Quarter

Hourly Weather History & Observations

Time (CDT) Temp. Dew Point Humidity Pressure Visibility Wind Dir Wind Speed Gust Speed Precip Events Conditions
12:53 AM 59.0 °F 55.0 °F 87% 30.03 in 10.0 mi SE 4.6 mph - N/A   Clear
1:53 AM 59.0 °F 55.0 °F 87% 30.02 in 10.0 mi SE 3.5 mph - N/A   Partly Cloudy
2:53 AM 59.0 °F 55.0 °F 87% 30.00 in 10.0 mi SE 4.6 mph - N/A   Scattered Clouds
3:53 AM 59.0 °F 54.0 °F 83% 29.99 in 10.0 mi SE 5.8 mph - N/A   Clear
4:53 AM 61.0 °F 53.1 °F 75% 29.98 in 10.0 mi SSE 6.9 mph - N/A   Mostly Cloudy
5:53 AM 61.0 °F 52.0 °F 72% 29.98 in 10.0 mi South 8.1 mph - N/A   Overcast
6:53 AM 61.0 °F 52.0 °F 72% 29.98 in 10.0 mi South 9.2 mph - N/A   Overcast
7:53 AM 61.0 °F 52.0 °F 72% 29.99 in 10.0 mi SSE 8.1 mph - 0.00 in   Overcast
8:53 AM 61.0 °F 53.1 °F 75% 29.98 in 10.0 mi South 8.1 mph - 0.00 in Rain Light Rain
9:53 AM 61.0 °F 53.1 °F 75% 29.98 in 10.0 mi SSE 9.2 mph - 0.00 in   Overcast
10:53 AM 64.0 °F 54.0 °F 70% 29.97 in 10.0 mi South 8.1 mph 17.3 mph 0.00 in   Overcast
11:53 AM 66.9 °F 54.0 °F 63% 29.96 in 10.0 mi South 8.1 mph 17.3 mph N/A   Overcast
12:53 PM 70.0 °F 55.9 °F 61% 29.93 in 10.0 mi South 9.2 mph 20.7 mph 0.00 in   Scattered Clouds
1:53 PM 73.0 °F 57.9 °F 59% 29.91 in 10.0 mi South 11.5 mph - N/A   Clear
2:53 PM 73.0 °F 60.1 °F 64% 29.88 in 10.0 mi SSE 8.1 mph - N/A   Mostly Cloudy
3:53 PM 78.1 °F 62.1 °F 58% 29.85 in 10.0 mi South 16.1 mph 21.9 mph 0.00 in   Partly Cloudy
4:53 PM 75.9 °F 62.1 °F 62% 29.84 in 10.0 mi South 15.0 mph 24.2 mph N/A   Clear
5:53 PM 77.0 °F 63.0 °F 62% 29.83 in 10.0 mi South 11.5 mph 18.4 mph N/A   Clear
6:53 PM 77.0 °F 64.0 °F 64% 29.82 in 10.0 mi SSE 9.2 mph 16.1 mph N/A   Clear
7:53 PM 73.0 °F 64.0 °F 73% 29.82 in 10.0 mi SE 6.9 mph - N/A   Clear
8:53 PM 73.0 °F 64.0 °F 73% 29.83 in 10.0 mi SSE 5.8 mph - N/A   Clear
9:53 PM 72.0 °F 64.0 °F 76% 29.84 in 10.0 mi South 5.8 mph - N/A   Clear
10:53 PM 71.1 °F 64.9 °F 81% 29.85 in 10.0 mi South 8.1 mph - N/A   Clear
11:53 PM 71.1 °F 64.0 °F 78% 29.85 in 10.0 mi South 10.4 mph - N/A   Clear